TimeEST,TemperatureF,Dew PointF,Humidity,Sea Level PressureIn,VisibilityMPH,Wind Direction,Wind SpeedMPH,Gust SpeedMPH,PrecipitationIn,Events,Conditions,WindDirDegrees,DateUTC
12:56 AM,52.0,51.1,97,29.98,7.0,Variable,4.6,-,0.13,Rain,Light Rain,0,2012-12-10 05:56:00
1:56 AM,55.9,55.0,97,29.96,4.0,SSW,11.5,-,0.07,Rain,Light Rain,200,2012-12-10 06:56:00
2:12 AM,55.4,53.6,94,29.95,2.0,South,8.1,-,0.02,Rain,Light Rain,190,2012-12-10 07:12:00
2:27 AM,55.4,53.6,94,29.95,1.8,SSW,9.2,-,0.02,Rain,Light Rain,200,2012-12-10 07:27:00
2:56 AM,55.0,54.0,96,29.94,0.8,SSW,6.9,-,0.02,,Mist,210,2012-12-10 07:56:00
3:38 AM,55.4,53.6,94,29.91,1.5,South,9.2,-,0.02,Rain,Rain,190,2012-12-10 08:38:00
3:42 AM,55.4,53.6,94,29.91,3.0,SSW,8.1,-,0.02,Rain,Light Rain,200,2012-12-10 08:42:00
3:56 AM,55.0,54.0,96,29.91,5.0,South,5.8,-,0.04,Rain,Light Rain,190,2012-12-10 08:56:00
4:56 AM,55.9,55.0,97,29.87,4.0,South,10.4,-,0.18,Rain,Light Rain,190,2012-12-10 09:56:00
5:56 AM,55.9,55.0,97,29.86,6.0,SSW,10.4,-,0.11,Rain,Light Rain,200,2012-12-10 10:56:00
6:48 AM,55.4,53.6,94,29.85,2.0,SW,11.5,-,0.00,,Overcast,230,2012-12-10 11:48:00
6:56 AM,55.9,54.0,93,29.85,1.5,SW,9.2,-,0.00,,Overcast,220,2012-12-10 11:56:00
7:30 AM,55.4,53.6,94,29.84,2.5,SSW,11.5,18.4,0.01,,Overcast,210,2012-12-10 12:30:00
7:47 AM,55.4,55.4,100,29.84,3.0,SW,11.5,23.0,0.01,,Overcast,220,2012-12-10 12:47:00
7:56 AM,55.9,55.0,97,29.84,4.0,SW,12.7,19.6,0.01,,Overcast,220,2012-12-10 12:56:00
8:12 AM,55.4,55.4,100,29.83,2.0,SSW,11.5,20.7,N/A,,Overcast,210,2012-12-10 13:12:00
8:56 AM,57.0,55.9,96,29.83,1.5,SSW,9.2,20.7,N/A,,Overcast,210,2012-12-10 13:56:00
9:17 AM,55.4,55.4,100,29.83,0.5,SSW,10.4,-,N/A,Fog,Fog,210,2012-12-10 14:17:00
9:52 AM,55.4,55.4,100,29.81,1.8,SW,8.1,-,0.02,Rain,Light Rain,220,2012-12-10 14:52:00
9:56 AM,55.9,55.0,97,29.81,1.8,SSW,10.4,-,0.04,Rain,Light Rain,200,2012-12-10 14:56:00
10:11 AM,57.2,55.4,94,29.80,2.5,SSW,10.4,19.6,0.08,Rain,Heavy Rain,210,2012-12-10 15:11:00
10:14 AM,57.2,55.4,94,29.79,3.0,SW,9.2,19.6,0.09,Rain,Light Rain,220,2012-12-10 15:14:00
10:29 AM,57.2,55.4,94,29.78,1.8,SW,8.1,-,0.24,Rain,Heavy Rain,230,2012-12-10 15:29:00
10:38 AM,57.2,55.4,94,29.78,3.0,SW,9.2,-,0.28,Rain,Light Rain,220,2012-12-10 15:38:00
10:56 AM,57.9,55.9,93,29.76,9.0,SSW,11.5,17.3,0.28,Rain,Light Rain,210,2012-12-10 15:56:00
11:16 AM,57.2,55.4,94,29.76,5.0,SW,9.2,-,0.01,Rain,Light Rain,220,2012-12-10 16:16:00
11:26 AM,57.2,55.4,94,29.74,2.5,SSW,10.4,21.9,0.05,Rain,Heavy Rain,210,2012-12-10 16:26:00
11:34 AM,59.0,57.2,94,29.74,9.0,SW,11.5,18.4,0.06,Rain,Light Rain,220,2012-12-10 16:34:00
11:56 AM,57.9,57.0,97,29.72,3.0,SSW,12.7,-,0.06,,Overcast,210,2012-12-10 16:56:00
11:59 AM,57.2,55.4,94,29.73,2.5,SW,11.5,-,0.00,Rain,Light Rain,220,2012-12-10 16:59:00
12:12 PM,57.2,57.2,100,29.72,3.0,SW,9.2,-,0.01,Rain,Light Rain,220,2012-12-10 17:12:00
12:26 PM,59.0,57.2,94,29.70,2.5,SW,12.7,18.4,0.08,Rain,Light Rain,220,2012-12-10 17:26:00
12:34 PM,59.0,57.2,94,29.70,5.0,SW,9.2,18.4,0.08,Rain,Light Rain,220,2012-12-10 17:34:00
12:56 PM,57.9,57.0,97,29.69,2.0,SSW,10.4,17.3,0.08,,Overcast,210,2012-12-10 17:56:00
1:03 PM,57.2,57.2,100,29.68,1.0,SSW,15.0,21.9,0.01,Rain,Light Rain,210,2012-12-10 18:03:00
1:10 PM,57.2,57.2,100,29.68,0.8,SSW,15.0,21.9,0.01,Rain,Light Rain,210,2012-12-10 18:10:00
1:51 PM,57.2,55.4,94,29.66,0.2,SSW,10.4,19.6,0.02,Fog,Fog,210,2012-12-10 18:51:00
1:56 PM,57.0,55.9,96,29.66,0.2,SSW,11.5,18.4,0.02,Fog,Fog,210,2012-12-10 18:56:00
2:35 PM,57.2,55.4,94,29.65,0.8,SSW,11.5,19.6,N/A,,Mist,210,2012-12-10 19:35:00
2:43 PM,57.2,55.4,94,29.65,1.0,SSW,10.4,18.4,N/A,,Overcast,200,2012-12-10 19:43:00
2:53 PM,57.2,55.4,94,29.64,0.5,SSW,12.7,19.6,0.01,Fog-Rain,Light Rain,200,2012-12-10 19:53:00
2:56 PM,57.0,55.9,96,29.64,0.5,SSW,12.7,19.6,0.03,Fog-Rain,Rain,200,2012-12-10 19:56:00
3:04 PM,57.2,55.4,94,29.64,2.5,SSW,9.2,19.6,0.01,Rain,Light Rain,200,2012-12-10 20:04:00
3:11 PM,57.2,55.4,94,29.63,5.0,SSW,10.4,-,0.01,Rain,Light Rain,200,2012-12-10 20:11:00
3:25 PM,57.2,55.4,94,29.63,2.5,SSW,6.9,17.3,0.05,Rain,Rain,200,2012-12-10 20:25:00
3:37 PM,57.2,55.4,94,29.63,3.0,SSW,6.9,-,0.08,Rain,Light Rain,200,2012-12-10 20:37:00
3:56 PM,57.0,55.9,96,29.62,6.0,SSW,9.2,-,0.10,Rain,Light Rain,210,2012-12-10 20:56:00
4:17 PM,55.4,55.4,100,29.61,1.8,South,9.2,-,0.00,Rain,Light Rain,190,2012-12-10 21:17:00
4:27 PM,55.4,55.4,100,29.60,3.0,SSW,9.2,-,0.02,Rain,Light Rain,200,2012-12-10 21:27:00
4:56 PM,55.9,55.0,97,29.60,2.5,WSW,9.2,-,0.03,Rain,Light Rain,240,2012-12-10 21:56:00
5:13 PM,55.4,53.6,94,29.60,1.2,WSW,6.9,-,0.01,Rain,Light Rain,240,2012-12-10 22:13:00
5:29 PM,55.4,55.4,100,29.58,0.8,SW,6.9,-,0.01,,Mist,220,2012-12-10 22:29:00
5:37 PM,55.4,55.4,100,29.58,1.0,SW,8.1,-,0.01,,Mist,220,2012-12-10 22:37:00
5:56 PM,55.9,55.0,97,29.58,0.8,SW,9.2,-,0.01,,Mist,220,2012-12-10 22:56:00
6:56 PM,55.0,54.0,96,29.58,0.5,WSW,5.8,-,N/A,Fog,Fog,250,2012-12-10 23:56:00
7:56 PM,55.0,55.0,100,29.58,0.5,SSW,4.6,-,N/A,Fog,Fog,200,2012-12-11 00:56:00
8:56 PM,55.0,54.0,96,29.58,1.2,SSW,4.6,-,0.01,,Overcast,210,2012-12-11 01:56:00
9:44 PM,53.6,53.6,100,29.57,0.8,SSW,6.9,-,N/A,,Mist,200,2012-12-11 02:44:00
9:56 PM,54.0,53.1,97,29.58,0.8,SSW,6.9,-,N/A,,Mist,210,2012-12-11 02:56:00
10:56 PM,54.0,53.1,97,29.58,0.8,SW,9.2,-,N/A,,Mist,220,2012-12-11 03:56:00
11:05 PM,53.6,53.6,100,29.58,1.2,SSW,9.2,-,0.00,Rain,Light Rain,210,2012-12-11 04:05:00
11:47 PM,53.6,53.6,100,29.58,3.0,WSW,4.6,-,0.01,Rain,Light Rain,240,2012-12-11 04:47:00
11:56 PM,55.0,54.0,96,29.57,4.0,SW,4.6,-,0.01,Rain,Light Rain,230,2012-12-11 04:56:00